Regional Weather Roundup
Issued by NWS

Home | Current Version | Previous Version | Graphics & Text | Print | Product List | Glossary On
Versions: 1 2 3 4 5 6 7 8 9 10 11 12 13 14 15 16 17 18 19 20 21 22 23 24 25 26 27 28 29 30 31 32 33 34 35 36 37 38 39 40 41 42 43 44 45 46 47 48 49 50
000
ASUS43 KIND 201509
RWRIN

WEATHER ROUNDUP FOR INDIANA
NATIONAL WEATHER SERVICE INDIANAPOLIS IN
1100 AM EDT SUN APR 20 2014

NOTE: "FAIR" INDICATES FEW OR NO CLOUDS BELOW 12,000 FEET WITH NO
SIGNIFICANT WEATHER AND/OR OBSTRUCTIONS TO VISIBILITY.

* - STATION DOES NOT REPORT WEATHER SUCH AS PRECIPITATION OR FOG.

+ - STATION NOT QUALITY CONTROLLED BY THE NATIONAL WEATHER SERVICE.
    USE DATA WITH CAUTION...ESPECIALLY DEWPOINT AND RELATIVE
    HUMIDITY OBSERVATIONS.

INZ001>003-010>013-019-020-201600-
NORTHWEST INDIANA

CITY           SKY/WX    TMP DP  RH WIND       PRES   REMARKS
GARY /AIRPORT/ MOSUNNY   61  32  33 S12       30.23F
LA PORTE +     MOSUNNY   57  31  36 S8        30.25F
MICHIGAN CITY+ MOSUNNY   61  30  31 S10G16    30.24F
MONTICELLO +   PTSUNNY   55  35  47 S5        30.25S
RENSSELAER +   PTSUNNY   59  32  36 SE7       30.24F
VALPARAISO     MOSUNNY   58  30  34 S10       30.24F

$$

LMZ046-743>745-201600-
SOUTHERN LAKE MICHIGAN

STATION/POSITION TIME  TEMP WIND        PRES
                       AIR  DIR/SP/G
                 (UTC) (F)  (DEG/KT/KT) (MB)
MICHIGAN CITY    1500   57  160/ 13/ 19   N/A

$$

INZ004-005-014>016-021>024-201600-
NORTH CENTRAL INDIANA

CITY           SKY/WX    TMP DP  RH WIND       PRES   REMARKS
ELKHART        MOSUNNY   57  30  35 S6        30.27R
GOSHEN         MOSUNNY   60  34  37 SE8       30.26F
LOGANSPORT +   PTSUNNY   57  32  38 SE7       30.26F
PERU/GRISSOM   PTSUNNY   58  36  43 S6        30.26S
ROCHESTER +    PTSUNNY   59  32  36 SE6       30.26F
SOUTH BEND     MOSUNNY   60  32  34 S9        30.27S
WARSAW +       MOSUNNY   59  32  36 S6        30.26F

$$

INZ006>009-017-018-025>027-201600-
NORTHEAST INDIANA

CITY           SKY/WX    TMP DP  RH WIND       PRES   REMARKS
ANGOLA *+      SUNNY     57  34  41 S8        30.26F
AUBURN +       SUNNY     57  30  35 SE5       30.28S
FORT WAYNE     PTSUNNY   58  33  39 SE7       30.28S

$$

INZ028-029-035-036-043>045-051>053-201600-
WEST CENTRAL INDIANA

CITY           SKY/WX    TMP DP  RH WIND       PRES   REMARKS
GREENCASTLE +  MOSUNNY   61  39  44 CALM      30.25S
LAFAYETTE      PTSUNNY   60  37  42 SE3       30.25S
TERRE HAUTE    MOSUNNY   62  40  44 S3        30.24F

$$

INZ030>032-037>040-046>048-054>057-064-065-201600-
CENTRAL INDIANA

CITY           SKY/WX    TMP DP  RH WIND       PRES   REMARKS
CP ATTERBURY + SUNNY     61  37  41 SE5       30.25F
COLUMBUS       SUNNY     59  39  47 CALM      30.26F
GREENWOOD *+   SUNNY     59  39  47 S7        30.26
INDIANAPOLIS   PTSUNNY   60  36  40 S9        30.25F
-EAGLE CREEK   SUNNY     60  34  37 S6        30.24F
KOKOMO *+      MOSUNNY   61 N/A N/A S8        30.26S
MARION +       MOSUNNY   60  32  34 S7        30.26S
MT COMFORT *+  SUNNY     63  37  39 SE7       30.25F
SHELBYVILLE    SUNNY     64  38  38 S7        30.25S
ZIONSVILLE +   SUNNY     62  31  31 S5        30.26S

$$

INZ033-034-041-042-049-050-058-059-201600-
EAST CENTRAL INDIANA

CITY           SKY/WX    TMP DP  RH WIND       PRES   REMARKS
MUNCIE         SUNNY     64  32  30 S12       30.25F

$$

INZ060-061-067>069-081>083-085>088-201600-
SOUTHWEST INDIANA

CITY           SKY/WX    TMP DP  RH WIND       PRES   REMARKS
EVANSVILLE     SUNNY     65  41  41 SE6       30.25R
HUNTINGBURG *+ SUNNY     64  43  45 SW5       30.25S
WASHINGTON +   SUNNY     63  42  44 SE5       30.24S

$$

INZ062-063-066-070>080-084-089>092-201600-
SOUTH CENTRAL AND SOUTHEAST INDIANA

CITY           SKY/WX    TMP DP  RH WIND       PRES   REMARKS
BLOOMINGTON    SUNNY     63  36  36 S7        30.25S

$$




USA.gov is the U.S. government's official web portal to all federal, state and local government web resources and services.